Location: Mt. Chestnut Observatory
(40.9038°N, 79.9956°W)
Time: 21:27:24
(UTC-04:00)

Daily predictions for brighter satellites

Satellite Brightness Start Highest point End
(mag) Time Altitude Azimuth Time Altitude Azimuth Time Altitude Azimuth
Cosmos 1371 Rocket 4.3 21:08:00 10° NNW 21:13:14 57° ENE 21:18:23 10° SSE
Spot 1 4.2 21:10:19 10° SSE 21:14:40 60° ENE 21:18:50 10° N
Cosmos 1697 Rocket 4.3 21:13:01 10° N 21:17:05 20° NE 21:21:08 10° E
PSLV R/B 4.2 21:16:56 10° W 21:19:45 31° SSW 21:22:34 10° SE
ASTEX 1 3.9 21:15:18 10° SSE 21:19:55 44° ENE 21:24:33 10° N
Cosmos 1666 2.9 21:21:11 10° NNW 21:24:55 70° W 21:28:38 10° S
Cosmos 2369 4.4 21:19:59 10° N 21:25:25 42° ENE 21:30:48 10° SE
Meteor 1-15 Rocket 4.4 21:21:40 10° N 21:27:10 57° ENE 21:32:37 10° SSE
Okean 2 3.7 21:23:46 10° SSE 21:27:41 47° E 21:31:37 10° NNE
Cosmos 2154 Rocket 4.2 21:21:44 10° N 21:27:59 57° E 21:34:12 10° SSE
Meteor 1-29 2.9 21:25:55 10° NNE 21:29:17 65° E 21:32:37 10° S
Meteor 2-9 Rocket 4.3 21:25:41 10° N 21:31:15 90° WSW 21:36:56 10° S
Cosmos 967 Rocket 4.4 21:25:03 10° SSW 21:31:16 71° ESE 21:37:30 10° NE
Cosmos 1833 Rocket 3.5 21:27:27 10° SSE 21:32:13 29° ESE 21:37:00 10° NE
Cosmos 1892 Rocket 4.3 21:29:37 10° SSE 21:33:37 34° E 21:37:37 10° NNE
Tiangong 2 1.6 21:35:21 10° W 21:38:31 58° N 21:41:40 10° E
Cosmos 1606 Rocket 3.7 21:39:36 10° N 21:43:53 57° E 21:47:52 12° SSE
Cosmos 1025 Rocket 3.1 21:40:05 10° S 21:44:21 82° W 21:48:38 10° N
Okean 1-7 Rocket 3.9 21:40:11 10° SSW 21:44:39 73° W 21:49:10 10° N
NOSS 8 (E) 4.4 21:43:29 10° SSW 21:46:56 75° ESE 21:50:36 10° NE
Cosmos 1726 Rocket 3.6 21:48:07 10° N 21:52:24 59° E 21:55:58 14° SSE
Cosmos 1624 Rocket 4.2 21:50:12 10° NNW 21:55:30 75° WSW 22:00:37 11° S
Cosmos 1515 3.6 21:53:50 10° S 21:57:35 69° E 22:01:24 10° NNE
Cosmos 1437 Rocket 2.8 21:53:49 10° NNW 21:57:42 77° W 22:01:23 11° S
Terra 3.8 21:59:51 11° E 22:02:23 16° ENE 22:05:10 10° NNE
Cosmos 1939 Rocket 4.2 22:01:44 10° SSW 22:05:16 34° W 22:08:51 10° NNW
Cosmos 2341 Rocket 4.0 21:59:11 10° N 22:05:35 81° E 22:11:28 12° S
ARGOS 3.5 22:02:00 17° SE 22:06:01 53° ENE 22:11:18 10° N
Cosmos 1980 Rocket 3.4 22:02:07 10° N 22:06:59 29° NE 22:10:36 15° ESE
USA 245 3.2 22:08:25 27° E 22:08:40 27° ENE 22:10:41 10° NNE
Hubble Space Telescope 2.8 22:06:51 10° SSW 22:08:03 12° S 22:08:03 12° S
Timation 2 Rocket 4.4 22:03:35 10° S 22:09:29 40° ESE 22:15:10 10° NE
H-2A R/B 2.8 22:06:48 19° ESE 22:09:45 35° ENE 22:14:20 10° N
Cosmos 2218 Rocket 4.4 22:06:13 10° N 22:12:08 46° ENE 22:16:06 20° SE
SL-08 RB Rocket 4.1 22:10:08 21° SE 22:12:43 45° ENE 22:17:00 10° N
SL-24 DEB 4.3 22:11:31 20° SSE 22:14:39 61° E 22:19:15 10° N
Cosmos 2058 Rocket 3.0 22:10:33 10° N 22:15:00 78° E 22:18:01 20° SSE
Cosmos 2056 Rocket 4.1 22:10:19 10° NNW 22:15:18 51° WSW 22:19:45 13° S
Cosmos 2322 Rocket 4.3 22:15:51 10° NNE 22:18:59 15° NE 22:22:07 10° E
SPOT 5 2.7 22:16:39 24° SSE 22:19:10 63° ENE 22:23:32 10° N
MetOp-B 4.1 22:15:12 18° SSE 22:19:20 88° ENE 22:24:44 10° NNW
NOAA 11 4.3 22:21:15 16° S 22:25:36 75° WSW 22:31:03 10° NNW
YAOGAN 11 4.0 22:25:48 24° SSE 22:28:20 89° WSW 22:32:43 10° NNW
Cosmos 1269 Rocket 4.5 22:26:05 24° SSE 22:28:47 41° ESE 22:33:44 10° NNE
H-2A R/B 3.6 22:28:29 20° E 22:30:09 25° ENE 22:33:51 10° NNE
Cosmos 1420 Rocket 4.2 22:25:01 10° NNW 22:30:12 56° ENE 22:32:48 28° SE
Lacrosse 5 3.7 22:32:56 15° E 22:32:56 15° E 22:34:16 10° ENE
CZ-3A R/B 1.9 22:28:54 10° WSW 22:31:48 31° NW 22:33:14 10° NNE
Meteor 1-4 Rocket 2.5 22:28:27 10° N 22:32:00 63° E 22:33:02 41° SE
Cosmos 1812 Rocket 4.4 22:28:19 10° N 22:32:25 35° ENE 22:33:49 28° ESE
Cosmos 2181 Rocket 4.2 22:26:32 10° SSW 22:32:52 75° W 22:39:10 10° N
Cosmos 1766 4.2 22:29:45 10° NNE 22:33:18 32° ENE 22:34:07 29° ESE
Cosmos 1048 Rocket 4.2 22:30:46 25° SSE 22:33:26 47° ESE 22:38:22 10° NNE
ISS -0.7 22:34:18 10° NW 22:36:13 14° N 22:38:07 10° NNE
Cosmos 1626 Rocket 3.5 22:38:00 32° SSE 22:39:52 65° E 22:44:10 10° NNE
DMSP B5D2-2 4.4 22:37:31 10° NNE 22:42:37 47° E 22:44:39 31° SSE
Cosmos 2082 Rocket 2.6 22:39:29 10° SW 22:45:07 64° WNW 22:50:45 10° NNE
ERS-1 Rocket 4.2 22:41:26 12° SSW 22:45:35 36° W 22:50:14 10° NNW
Cosmos 864 Rocket 4.5 22:40:18 10° N 22:46:36 73° E 22:49:55 29° SSE
Cosmos 2228 3.6 22:42:30 10° NNW 22:46:42 53° W 22:49:02 24° SSW
TELKOM 3 4.1 22:44:28 10° WNW 22:46:40 42° SW 22:46:40 42° SW
Cosmos 1452 Rocket 3.7 22:41:49 10° NNW 22:47:04 68° WSW 22:49:50 28° S
Lacrosse 5 rocket 3.6 22:47:39 10° NNW 22:51:16 22° NNE 22:54:38 11° ENE
Cosmos 1656 4.2 22:50:36 10° NW 22:55:52 50° WSW 22:58:44 26° S
Cosmos 1805 4.0 22:56:50 10° N 23:00:27 36° ENE 23:00:38 36° E
SPOT 1/Viking Rocket 3.7 22:59:04 31° S 23:01:32 69° WSW 23:06:40 10° NNW
Cosmos 1697 Rocket 2.9 22:55:59 10° NNW 23:01:32 65° WSW 23:04:02 33° S
SL-8 Rocket 4.5 22:59:08 10° NNW 23:05:15 56° W 23:09:24 21° SSW
Meteor 1-22 Rocket 4.2 23:04:03 10° NNW 23:09:23 73° W 23:11:43 35° S
SL-24 R/B - RUBIN 2 4.5 23:03:24 10° SSW 23:10:06 84° ESE 23:16:40 10° NE
Cosmos 2366 rocket 4.2 23:06:43 10° NNW 23:12:48 67° W 23:16:01 29° SSW
USA 229 DEB 3.8 23:05:51 10° NW 23:13:04 88° NE 23:16:22 36° SE
USA 229 3.8 23:05:57 10° NW 23:13:09 87° NE 23:16:28 36° SE
Iridium 2 3.7 23:09:24 10° N 23:13:10 63° E 23:13:11 63° E
SL-16 R/B 3.2 23:08:20 10° N 23:13:30 34° ENE 23:15:34 26° E
Cosmos 2251 Rocket 4.4 23:14:09 31° E 23:14:10 31° E 23:18:53 10° NE
Cosmos 2360 4.2 23:08:37 10° NNW 23:14:22 80° ENE 23:16:15 44° SE
Cosmos 1758 3.9 23:11:10 10° N 23:14:57 42° ENE 23:14:57 42° ENE
Tiangong 2 1.9 23:12:10 10° WNW 23:14:31 45° W 23:14:31 45° W
Cosmos 1833 Rocket 4.0 23:10:44 10° SW 23:15:58 39° WNW 23:21:14 10° N
Cosmos 1602 Rocket 4.2 23:14:05 27° SW 23:16:07 50° W 23:20:20 10° N
CZ-4 R/B 4.1 23:11:28 10° NNE 23:16:23 52° E 23:17:06 48° SE
Cosmos 158 Rocket 4.2 23:15:00 23° SSW 23:18:23 72° WNW 23:23:47 10° NNE
Landsat 7 4.1 23:23:14 42° SSW 23:24:35 59° W 23:29:18 10° NNW
Cosmos 1544 3.1 23:22:58 10° N 23:26:22 77° NNW 23:26:22 77° NNW
Cosmos 1271 Rocket 2.8 23:24:28 10° NNW 23:28:22 68° W 23:28:35 66° WSW
Cosmos 1842 3.4 23:28:44 63° WSW 23:29:05 68° W 23:33:01 10° N
CZ-4B R/B 3.5 23:28:36 10° NNE 23:33:42 64° ESE 23:34:27 57° SE
deb Chang Zheng 4 3.5 23:29:38 10° NNE 23:33:57 84° WNW 23:34:29 68° SSW
Cosmos 1733 4.5 23:31:21 10° NNE 23:34:16 31° ENE 23:34:16 31° ENE
Cosmos 494 Rocket 4.0 23:36:46 55° ESE 23:37:01 56° ESE 23:42:04 10° NNE
Terra 2.1 23:38:44 50° SW 23:39:37 59° W 23:44:20 10° NNW
IGS 5A 3.7 23:39:46 55° WSW 23:40:03 57° W 23:44:09 10° NNW
CARTOSAT-1 4.0 23:40:58 49° SW 23:41:25 52° W 23:45:39 10° NNW
SME Rocket 4.3 23:41:05 34° E 23:41:32 34° ENE 23:45:14 10° N
CZ-4C R/B 3.9 23:42:13 45° NE 23:42:13 45° NE 23:45:10 10° N
SL-19 R/B 4.2 23:36:37 10° N 23:41:54 73° WNW 23:43:40 42° SW
ATLAS CENTAUR R/B 1.9 23:39:19 10° NNW 23:42:28 44° NNE 23:42:28 44° NNE
H-2A R/B 3.5 23:47:26 21° SW 23:49:13 26° W 23:53:27 10° NW
Cosmos 2360 Rocket 3.6 23:45:03 10° N 23:49:53 28° NE 23:51:48 23° E
Cosmos 1980 Rocket 2.9 23:45:50 10° NW 23:51:07 42° WSW 23:52:22 37° SW
